METEOR 2-5 DEB

Satellite information

Favourite Embed

Satellite Type and Status

DEBRISIN ORBIT

Key statistics

Satellite METEOR 2-5 DEB at a glance.

Uptime

16741

Days in orbit

Revolutions

≈ 14.4

Per day

Orbit

LEO

Low Earth Orbit

Inclination

81.2

Latest

Satellite identification and parameters

Extended collection of information and parameters for METEOR 2-5 DEB.

Object identification

Identified? True

Debris? True

Object name: METEOR 2-5 DEB

International designator: 1979-095BS

Object number (NORAD): 38272

Object ID (CCSDS): 38272

Country: COMMONWEALTH OF INDEPENDENT STATES (CIS)

Current information (Y/N): Y

RCS size: SMALL

Orbital parameters

Period: 100.214 minutes

Inclination: 81.1961 deg

SMA: 7146.796 km

Apoapsis: 788.961 km

Periapsis: 748.361 km

RAAN: 78.888 deg

Eccentricy: 0.00284048

Argument of periapsis: 183.8259 deg

Mean anomaly: 193.635 deg

Mean motion: 14.36930227 rev/day

Mean motion (dot): 0.00004904 rev/day2

B* drag term: 0.0016450353 1/REarth

Two-line elements (TLE)

Creation date: Aug. 25, 2025, 2:12 a.m.

Reference frame: TEME

Reference center: EARTH

Epoch: Aug. 24, 2025, 8:14 p.m. UTC

TLE line 0: 0 METEOR 2-5 DEB

TLE line 1: 1 38272U 79095BS 25236.84370553 .00004904 00000-0 16450-2 0 9990

TLE line 2: 2 38272 81.1961 78.8880 0028405 183.8259 193.6350 14.36930227618294

Live tracking on map

Real-time ground track for satellite METEOR 2-5 DEB.

In-orbit conjunctions

A list of the most updated potential collisions computed for object METEOR 2-5 DEB.

Target Orbit TCA Probability of collision Miss distance Type
RADARSAT SSO 2025-02-12 21:47:05 0.0003080291 421.0 (m) PAYLOAD
NOAA 16 DEB SSO 2024-11-11 03:50:50 0.0002203329 307.0 (m) DEBRIS

Associated space launch

Second generation soviet meteorological satellite

METEOR 2-5 DEB was lifted into orbit during the mission ‘Vostok 8A92M | Meteor-2 5’, on board a Vostok 8A92M space rocket.

The launch took place on Oct. 31, 1979, 9:25 a.m. from 43/4 (43R).

For more information about the launch, click the button.

Launch to space Vostok 8A92M | Meteor-2 5
Vostok 8A92M | Meteor-2 5

Agency: N/A

Status: Launch Successful

Launch date: Oct. 31, 1979, 9:25 a.m. UTC

Rocket: Vostok 8A92M

Launch pad: 43/4 (43R)

Location: Plesetsk Cosmodrome, Russian Federation

...

Latest news about this satellite

There are no fresh news available about this satellite. Check back as we update our databases every day.


Newsletter sign-up

Weekly statistics, charts and insights to help you stay on top of the space industry.